KEUL

Caldwell Executive Airport

Airport
ICAO code
KEUL
Summary
ICAO Region
NAM
ICAO Territory
Location

Caldwell, Idaho

Serving
Caldwell
Elevation
2432 ft
Coordinates
43° 38' 28" N , 116° 38' 6" W
KCC
Airport CFIT
Altimeter Temperature Error Correction
Metar
KEUL 230256Z AUTO 04004KT 10SM CLR 33/08 A2973 RMK AO2 SLP040 T03280078 56014

Description

Caldwell Industrial Airport is a city-owned public-use airport located 3 nm southeast of the central business district of Caldwell, a city in Canyon County, Idaho, United States.

Airport map

Aerial View

SKYbrary Partners:

Safety knowledge contributed by: